User: anonymous   Login
Location: Newark
(15.4608°S, 41.1635°W)
Time: 16:37:05
(UTC+00:00)
Language:

SR - Orbit

View from above orbital plane
View from above orbital plane
View from above satellite
View from above satellite

Ground track
Ground track

The orbit data is extracted from the following two-line orbital elements,

1 00046U 60007B   21057.89367687  .00000092  00000-0  40933-4 0  9996
2 00046  66.6894  78.9971 0216811 300.5471  57.4397 14.49370625175987
Epoch (UTC): 26 February 2021 21:26:53
Eccentricity: 0.0216811
inclination: 66.6894°
perigee height: 573 km
apogee height: 882 km
right ascension of ascending node: 78.9971°
argument of perigee: 300.5471°
revolutions per day: 14.49370625
mean anomaly at epoch: 57.4397°
orbit number at epoch: 17598

The dashed part of the orbit path shows where the satellite is in the earth's shadow,  

DLR